INTELSAT 8 (IS-8)

Last updated on Jan. 5, 2019, 2:57 a.m. UTC

1 25522U 98065A   19003.76187528 -.00000198  00000-0  00000-0 0  9990
2 25522   2.2963  85.8769 0296007 232.6088  22.2111  0.95186562 18905
UTC
Height (km)
Latitude
Longitude
Inclination
Orbital Period
UTC large
Height (km)
Speed (km/s)
/
Latitude / Longitude
Inclination (degrees)
Orbital Period (minutes)
Azimuth
Elevation
Range (km)
Doppler Factor
iOS Compass Heading
iOS Angle

Next 30 passes for location: Hong Kong

Rise time Rise Azimuth (degrees) Set time Set Azimuth (degrees) Duration Max altitude (degrees)

No matching passes for this satellites